YO8RXT-3 Weather Reports


Display with metric or nautical units.
time (UTC)temp
F
wind
direction
speed
MPH
gust
MPH
rain 1hr
in
rain 24hr
in
rain mn
in
humidity
%
barometer
mb
20260905180503 63 320 7.0 0.0 0.00 0.00 0.00 88 1016.0
20260905173502 63 320 6.0 0.0 0.00 0.00 0.00 88 1016.0
20260905170502 72 320 9.0 0.0 0.00 0.00 0.00 50 1016.0
20260905163502 72 360 5.0 0.0 0.00 0.00 0.00 47 1015.0
20260905160502 72 320 20.0 0.0 0.00 0.00 0.00 47 1015.0
20260905153503 73 320 17.0 29.0 0.00 0.00 0.00 47 1014.0
20260905150502 75 330 26.0 38.0 0.00 0.00 0.00 47 1013.0
20260905143502 77 330 31.0 0.0 0.00 0.00 0.00 42 1012.0
20260905140502 90 300 11.0 0.0 0.00 0.00 0.00 29 1012.0
20260905133502 91 250 6.0 0.0 0.00 0.00 0.00 28 1011.0
20260905130502 91 270 7.0 0.0 0.00 0.00 0.00 28 1011.0
20260905123502 90 7.0 0.0 0.00 0.00 0.00 27 1012.0
20260905120502 91 260 7.0 0.0 0.00 0.00 0.00 28 1012.0
20260905113503 90 210 8.0 0.0 0.00 0.00 0.00 29 1012.0
20260905110502 88 190 7.0 0.0 0.00 0.00 0.00 31 1012.0
20260905103503 88 190 6.0 0.0 0.00 0.00 0.00 31 1013.0
20260905100502 88 200 8.0 0.0 0.00 0.00 0.00 31 1013.0
20260905093502 88 220 8.0 0.0 0.00 0.00 0.00 33 1013.0
20260905090503 86 210 8.0 0.0 0.00 0.00 0.00 33 1013.0
20260905083503 84 240 8.0 0.0 0.00 0.00 0.00 35 1013.0
20260905080502 82 240 7.0 0.0 0.00 0.00 0.00 37 1014.0
20260905073502 81 190 6.0 0.0 0.00 0.00 0.00 42 1014.0
20260905070503 79 190 6.0 0.0 0.00 0.00 0.00 45 1014.0
20260905063502 75 210 7.0 0.0 0.00 0.00 0.00 47 1014.0
20260905060503 72 210 6.0 0.0 0.00 0.00 0.00 53 1014.0
20260905053502 70 200 6.0 0.0 0.00 0.00 0.00 57 1014.0
20260905050502 66 2.0 0.0 0.00 0.00 0.00 64 1014.0
20260905043502 64 210 3.0 0.0 0.00 0.00 0.00 64 1014.0
20260905040502 64 230 6.0 0.0 0.00 0.00 0.00 64 1014.0
20260905033502 64 230 6.0 0.0 0.00 0.00 0.00 64 1014.0
20260905030502 66 220 5.0 0.0 0.00 0.00 0.00 56 1014.0
20260905023502 66 250 6.0 0.0 0.00 0.00 0.00 60 1014.0
20260905020502 66 2.0 0.0 0.00 0.00 0.00 60 1014.0
20260905013502 66 210 3.0 0.0 0.00 0.00 0.00 60 1014.0
20260905010502 66 240 3.0 0.0 0.00 0.00 0.00
20260905003502 66 220 2.0 0.0 0.00 0.00 0.00 60 1014.0
20260905000501 66 1.0 0.0 0.00 0.00 0.00 64 1014.0
20260904233503 68 220 3.0 0.0 0.00 0.00 0.00 60 1014.0
20260904230503 68 1.0 0.0 0.00 0.00 0.00 64 1014.0
20260904223502 68 1.0 0.0 0.00 0.00 0.00 64 1014.0
20260904220502 68 0 0.0 0.0 0.00 0.00 0.00 64 1014.0
20260904213502 68 0 0.0 0.0 0.00 0.00 0.00 64 1015.0
20260904210503 68 0 0.0 0.0 0.00 0.00 0.00 64 1014.0
20260904203502 70 240 2.0 0.0 0.00 0.00 0.00 60 1014.0
20260904200502 72 230 1.0 0.0 0.00 0.00 0.00 57 1014.0
20260904193502 72 240 2.0 0.0 0.00 0.00 0.00 53 1014.0
20260904190502 73 210 3.0 0.0 0.00 0.00 0.00 50 1015.0
20260904183502 73 220 2.0 0.0 0.00 0.00 0.00 50 1015.0